Location: Campestrin
(46.4667°N, 11.7167°E)
Time: 10:28:18
(UTC+00:00)

Cosmos 2151 - Pass Details

Date: 18 April 2021
Orbit: 582 x 600 km, 82.5° (Epoch: 06 May)

Event Time Altitude Azimuth Distance (km) Brightness Sun altitude
Rises 20:38:01 0° 346° (NNW) 2,860 7.5 -22.8°
Reaches altitude 10° 20:40:17 10° 341° (NNW) 1,952 6.5 -23.1°
Maximum altitude 20:44:27 51° 266° (W) 761 3.6 -23.6°
Enters shadow 20:45:17 44° 228° (SW) 838 3.6 -23.7°
